Preview of NWS' New Version of Forecast
This preview is not operational and should not be used for support decisions.

Regional Weather Roundup (RWR)

Issued by National Weather Service (NWS)

                            
000
ASUS43 KTOP 191959
RWRKS 

WEATHER ROUNDUP FOR KANSAS
NATIONAL WEATHER SERVICE GOODLAND KS
300 PM CDT MON AUG 19 2019

NOTE:  "FAIR" INDICATES FEW OR NO CLOUDS BELOW 12,000 FEET WITH NO
SIGNIFICANT WEATHER AND/OR OBSTRUCTIONS TO VISIBILITY.

KSZ001>006-013>018-027>032-041>047-192100-
NORTHWEST KANSAS
  
CITY           SKY/WX    TMP DP  RH WIND       PRES   REMARKS
GOODLAND       SUNNY     89  73  59 S12G20    29.98F HX  97           
HAYS           SUNNY     95  72  47 SE17      30.05R HX 103           
RUSSELL        SUNNY     94  71  47 SE15      29.92F HX 101           
$$

KSZ061>065-074>080-084>089-192100-
SOUTHWEST KANSAS
  
CITY           SKY/WX    TMP DP  RH WIND       PRES   REMARKS
DODGE CITY     SUNNY     99  66  33 S14       29.97F HX 103           
GARDEN CITY    SUNNY     96  65  35 S16G24    29.96F HX  98           
GREAT BEND     SUNNY     95  71  45 SE12      29.94F HX 102           
LIBERAL        SUNNY    100  65  31 S10       29.97F HX 103           
$$

KSZ066>073-081>083-090>101-192100-
SOUTHEAST KANSAS
  
CITY           SKY/WX    TMP DP  RH WIND       PRES   REMARKS
CHANUTE        SUNNY     95  77  55 S10       29.98S HX 109           
COFFEYVILLE    SUNNY     92  78  63 S9        29.96S HX 107           
HUTCHINSON     SUNNY     96  75  50 SE14      29.93F HX 108           
MEDICINE LODGE   N/A    100  68  35 S9G17     29.92F HX 105           
NEWTON           N/A     90  78  68 S12       29.96F HX 104           
PARSONS        SUNNY     93  79  63 S7        29.98F HX 110           
WICHITA INTL   MOSUNNY   97  73  45 S12       29.93F HX 107           
WICHITA JABRA  SUNNY     94  76  55 S8        29.95F HX 106           
WICHITA MCCONL SUNNY     95  70  44 E10       29.95F HX 101           
WINFIELD       SUNNY     94  75  54 SE12      29.95F HX 105           
$$

KSZ007>012-019>026-033>040-048>060-102>105-192100-
NORTHEAST KANSAS
  
CITY           SKY/WX    TMP DP  RH WIND       PRES   REMARKS
CONCORDIA      SUNNY     92  79  65 SE9G17    29.93F HX 108           
EMPORIA        SUNNY     92  78  63 SE12      29.95F HX 107           
LAWRENCE       SUNNY     95  77  55 SE8       29.95F HX 109           
MANHATTAN      SUNNY     94  77  57 S9        29.92F HX 108           
OLATHE IND     SUNNY     91  76  61 S9        29.98F HX 103           
OLATHE EXE     SUNNY     90  77  65 SE8       29.98F HX 103           
SALINA         SUNNY     93  75  55 SE12      29.92F HX 104           
TOPEKA BILLARD MOSUNNY   92  76  59 SE8       29.94F HX 104           
TOPEKA FORBES  SUNNY     95  75  52 VRB7      29.95F HX 107           
$$